Home > Weather > Ivalo > Past weeks

Flag for Finland Past Weather in Ivalo, Finland — Yesterday and Last 2 Weeks

Now
68 °F

Sunny.


Feels Like: 68 °F
Forecast: 56 / 65 °F
Wind: 8 mph from North

Location: Ivalo

Current Time: Jul 29, 2016 at 3:10:49 PM

Latest Report: Jul 29, 2016 at 2:20 PM


Visibility: 10 mi

Pressure: 29.74 "Hg

Humidity: 64%

Dew Point: 55 °F

Location of IvaloLocation

Past Weather in Ivalo — Graph

°F

Ivalo Temperature Yesterday

Maximum temperature yesterday: 59 °F (at 12:20 AM)
Minimum temperature yesterday: 55 °F (at 4:20 AM)
Average temperature yesterday: 57 °F

High & Low Weather Summary for the Past Weeks

 TemperatureHumidityPressure
High82 °F (Jul 24, 2:20 PM)100% (Jul 15, 1:50 AM)30.21 "Hg (Jul 15, 1:50 AM)
Low45 °F (Jul 19, 2:20 AM)22% (Jul 23, 1:50 PM)29.53 "Hg (Jul 16, 10:50 PM)
Average62 °F71%29.92 "Hg
* Reported Jul 14 1:20 PM — Jul 29 1:50 PM, Ivalo, Weather by CustomWeather, © 2016

Note: Actual official high and low records may vary slightly from our data, if they occured in-between our weather recording intervals... More about our weather records

Advertising

Ivalo Weather History for the Previous 24 Hours

Scroll right to see more
 ConditionsComfort  
Time TempWeatherWind HumidityBarometerVisibility
1:50 PM
Fri, Jul 29
64 °FPartly sunny.12 mph78%29.77 "HgN/A
1:20 PM64 °FSprinkles. Partly sunny.9 mph88%29.74 "HgN/A
12:50 PM68 °FPassing clouds.3 mph69%29.74 "HgN/A
12:20 PM68 °FSunny.3 mph73%29.77 "Hg10 mi
11:50 AM66 °FSunny.No wind73%29.77 "Hg10 mi
11:20 AM66 °FSunny.No wind73%29.77 "Hg10 mi
10:50 AM64 °FPartly sunny.2 mph78%29.77 "HgN/A
10:20 AM63 °FPartly sunny.1 mph83%29.77 "HgN/A
9:50 AM61 °FPartly sunny.2 mph88%29.77 "HgN/A
9:20 AM59 °FLow clouds.No wind94%29.77 "HgN/A
8:50 AM59 °FLow clouds.2 mph88%29.80 "HgN/A
8:20 AM57 °FMostly cloudy.3 mph94%29.80 "HgN/A
7:50 AM57 °FMostly cloudy.3 mph94%29.80 "HgN/A
7:20 AM55 °FLow clouds.3 mph100%29.80 "HgN/A
6:50 AM55 °FLow clouds.3 mph94%29.80 "HgN/A
6:20 AM55 °FLow clouds.5 mph94%29.80 "HgN/A
5:50 AM55 °FLow clouds.6 mph94%29.80 "HgN/A
5:20 AM55 °FLow clouds.5 mph94%29.80 "HgN/A
4:50 AM55 °FSprinkles. Low clouds.5 mph94%29.80 "HgN/A
4:20 AM55 °FSprinkles. Low clouds.5 mph94%29.83 "HgN/A
3:50 AM55 °FLow clouds.6 mph94%29.83 "HgN/A
3:20 AM55 °FLow clouds.6 mph94%29.83 "HgN/A
2:50 AM55 °FLow clouds.6 mph94%29.83 "HgN/A
2:20 AM55 °FLow clouds.6 mph94%29.83 "HgN/A
1:50 AM55 °FSprinkles. Overcast.7 mph94%29.83 "HgN/A
1:20 AM55 °FSprinkles. Low clouds.7 mph94%29.83 "HgN/A
12:50 AM55 °FSprinkles. Low clouds.7 mph94%29.86 "HgN/A
12:20 AM55 °FSprinkles. Low clouds.6 mph94%29.86 "HgN/A
11:50 PM
Thu, Jul 28
55 °FLow clouds.6 mph94%29.86 "HgN/A
11:20 PM55 °FOvercast.7 mph94%29.86 "HgN/A
10:50 PM57 °FOvercast.6 mph88%29.86 "HgN/A
10:20 PM57 °FOvercast.6 mph88%29.86 "HgN/A
9:50 PM57 °FOvercast.5 mph88%29.86 "HgN/A
9:20 PM57 °FOvercast.6 mph88%29.86 "HgN/A
8:50 PM57 °FSprinkles. Overcast.5 mph94%29.86 "HgN/A
8:20 PM57 °FOvercast.8 mph94%29.86 "HgN/A
7:50 PM59 °FLight rain. Overcast.8 mph88%29.86 "HgN/A
7:20 PM59 °FSprinkles. Overcast.8 mph88%29.86 "HgN/A
6:50 PM59 °FSprinkles. Overcast.9 mph88%29.86 "HgN/A
6:20 PM57 °FSprinkles. Low clouds.8 mph94%29.86 "HgN/A
5:50 PM57 °FLight rain. Low clouds.8 mph94%29.89 "HgN/A
5:20 PM57 °FLow clouds.9 mph94%29.89 "HgN/A
4:50 PM57 °FLow clouds.9 mph94%29.89 "Hg4 mi
4:20 PM59 °FLow clouds.8 mph88%29.89 "HgN/A
3:50 PM57 °FLow clouds.8 mph94%29.89 "HgN/A
3:20 PM57 °FLow clouds.9 mph94%29.89 "HgN/A
Weather by CustomWeather, © 2016

See weather overviewHow to use our weather pages